Evans Head Observation History
Time Wind Speed Temp Pressure Rel. Hum Rain
30/04:00am SW 10-15 kts 14.0°c 1023.9 hPa 94% 10.2mm
30/03:30am SW 8-14 kts 14.0°c 1024.0 hPa 94% 10.2mm
30/03:00am SW 9-13 kts 14.2°c 1023.9 hPa 94% 10.2mm
30/02:30am WSW 7-11 kts 14.4°c 1024.0 hPa 94% 9.4mm
30/02:00am SW 7-12 kts 14.4°c 1024.2 hPa 94% 7.8mm
30/01:30am SW 5-10 kts 14.3°c 1024.4 hPa 94% 7.6mm
30/01:00am WSW 8-12 kts 14.2°c 1024.4 hPa 94% 7.4mm
30/12:30am SW 10-15 kts 14.2°c 1024.4 hPa 93% 7.2mm
30/12:00am SSW 12-19 kts 14.6°c 1024.8 hPa 93% 7.0mm
Time Wind Speed Temp Pressure Rel. Hum Rain
29/11:30pm SSW 10-15 kts 14.6°c 1024.5 hPa 89% 1.0mm
29/11:00pm SW 10-15 kts 14.9°c 1024.6 hPa 88% 1.0mm
29/10:30pm SSW 12-17 kts 15.2°c 1024.8 hPa 87% 1.0mm
29/10:00pm SSW 10-13 kts 15.6°c 1024.9 hPa 86% 0.6mm
29/09:30pm SSW 11-16 kts 16.4°c 1024.7 hPa 88% 0.6mm
29/09:00pm S 13-21 kts 16.4°c 1024.5 hPa 89% 0.6mm
29/08:30pm SSW 11-19 kts 16.9°c 1024.5 hPa 80% 0.0mm
29/08:00pm SSW 11-15 kts 16.7°c 1024.3 hPa 80% 0.0mm
29/07:30pm SSW 10-15 kts 17.1°c 1024.1 hPa 77% 0.0mm
29/07:00pm SSW 10-15 kts 17.7°c 1023.9 hPa 74% 0.0mm
29/06:48pm S 16-26 kts 18.5°c 1023.8 hPa 72% 0.0mm
29/06:30pm S 19-25 kts 18.7°c 1023.5 hPa 70% 0.0mm
29/06:00pm S 18-24 kts 18.6°c 1023.3 hPa 70% 0.0mm
29/05:30pm S 15-23 kts 18.4°c 1023.3 hPa 71% 0.0mm
29/05:00pm S 16-22 kts 18.4°c 1023.1 hPa 70% 0.0mm
29/04:30pm S 16-21 kts 18.4°c 1023.0 hPa 71% 0.0mm
29/04:00pm S 16-24 kts 18.7°c 1022.6 hPa 71% 0.0mm
29/03:30pm S 15-21 kts 19.2°c 1022.4 hPa 70% 0.0mm
29/03:00pm S 17-22 kts 19.6°c 1022.1 hPa 68% 0.0mm
29/02:30pm S 17-24 kts 20.1°c 1022.1 hPa 70% 0.0mm
29/02:00pm S 19-26 kts 20.2°c 1022.2 hPa 69% 0.0mm
29/01:37pm S 17-27 kts 20.6°c 1022.2 hPa 68% 0.0mm
29/01:30pm S 20-27 kts 20.1°c 1022.1 hPa 68% 0.0mm
29/01:00pm S 17-25 kts 20.3°c 1022.3 hPa 67% 0.0mm
29/12:30pm S 18-25 kts 20.2°c 1022.7 hPa 67% 0.0mm
29/12:00pm S 17-28 kts 20.2°c 1022.9 hPa 67% 0.0mm
29/11:59am S 17-28 kts 20.3°c 1022.9 hPa 66% 0.0mm
29/11:30am S 17-26 kts 20.5°c 1023.2 hPa 68% 0.0mm
29/11:00am S 15-22 kts 19.3°c 1023.5 hPa 72% 0.0mm
29/10:30am S 14-19 kts 20.1°c 1023.5 hPa 71% 0.0mm
29/10:00am SSW 14-19 kts 19.8°c 1023.7 hPa 71% 0.0mm
29/09:30am SSW 12-19 kts 19.1°c 1023.8 hPa 73% 0.0mm
29/09:00am SSW 11-17 kts 17.5°c 1023.6 hPa 77% 0.0mm
29/08:30am SSW 10-15 kts 17.8°c 1023.3 hPa 75% 0.0mm
29/08:00am SSW 9-13 kts 17.2°c 1023.0 hPa 78% 0.0mm
29/07:30am SW 10-17 kts 16.1°c 1022.6 hPa 82% 0.0mm
29/07:00am SW 11-17 kts 15.6°c 1022.3 hPa 86% 0.0mm
29/06:30am SW 9-12 kts 15.1°c 1021.9 hPa 91% 0.0mm
29/06:00am SW 10-14 kts 15.4°c 1021.5 hPa 90% 0.0mm
29/05:30am SW 9-13 kts 15.6°c 1021.3 hPa 90% 0.0mm
29/05:00am SW 10-14 kts 15.7°c 1021.1 hPa 90% 0.0mm
29/04:30am SW 9-12 kts 15.8°c 1020.8 hPa 90% 0.0mm
29/04:00am SW 7-10 kts 15.8°c 1020.8 hPa 92% 0.0mm
29/03:30am WSW 7-11 kts 15.7°c 1020.8 hPa 92% 0.0mm
29/03:00am WSW 8-11 kts 15.8°c 1020.6 hPa 91% 0.0mm
29/02:30am WSW 7-9 kts 16.0°c 1020.5 hPa 92% 0.0mm
29/02:00am SW 8-11 kts 16.1°c 1020.6 hPa 91% 0.0mm
29/01:30am SW 8-11 kts 16.4°c 1020.6 hPa 91% 0.0mm
29/01:00am SW 10-14 kts 16.4°c 1020.4 hPa 91% 0.0mm
29/12:30am SW 9-12 kts 16.3°c 1020.7 hPa 92% 0.0mm
29/12:00am SW 10-14 kts 16.7°c 1020.7 hPa 91% 0.0mm
Time Wind Speed Temp Pressure Rel. Hum Rain
28/11:30pm SW 11-16 kts 16.9°c 1020.8 hPa 89% 0.0mm
28/11:00pm SW 9-11 kts 17.5°c 1020.8 hPa 86% 0.0mm
28/10:30pm SW 9-12 kts 17.5°c 1021.0 hPa 87% 0.0mm
28/10:00pm WSW 7-9 kts 16.4°c 1021.0 hPa 92% 0.0mm
28/09:30pm SSW 7-9 kts 17.1°c 1020.7 hPa 90% 0.0mm
28/09:00pm S 6-7 kts 17.5°c 1020.7 hPa 90% 0.0mm
28/08:30pm SSE 7-9 kts 17.7°c 1020.6 hPa 90% 0.0mm
28/08:00pm SSE 7-9 kts 17.7°c 1020.5 hPa 88% 0.0mm
28/07:30pm SSE 7-9 kts 18.2°c 1020.2 hPa 87% 0.0mm
28/07:00pm SSE 7-8 kts 17.9°c 1019.8 hPa 88% 0.0mm
28/06:30pm SSE 8-12 kts 18.2°c 1019.4 hPa 88% 0.0mm
28/06:00pm SE 8-10 kts 18.4°c 1019.0 hPa 85% 0.0mm
28/05:30pm SE 8-10 kts 18.4°c 1018.7 hPa 86% 0.0mm
28/05:00pm SE 7-11 kts 18.5°c 1018.5 hPa 86% 0.0mm
28/04:30pm SE 8-10 kts 18.7°c 1018.4 hPa 81% 0.0mm
28/04:00pm SE 8-11 kts 19.5°c 1018.3 hPa 78% 0.0mm
28/03:30pm SE 8-11 kts 20.1°c 1018.2 hPa 76% 0.0mm
28/03:00pm SE 7-10 kts 20.8°c 1018.1 hPa 75% 0.0mm
28/02:30pm SSE 8-10 kts 20.7°c 1018.2 hPa 74% 0.0mm
28/02:00pm SSE 8-10 kts 21.0°c 1018.4 hPa 71% 0.0mm
28/01:30pm SE 8-11 kts 21.9°c 1018.3 hPa 69% 0.0mm
28/01:00pm SSE 8-11 kts 21.9°c 1018.5 hPa 67% 0.0mm
28/12:30pm SSE 7-10 kts 22.1°c 1018.9 hPa 69% 0.0mm
28/12:00pm SSE 7-10 kts 21.7°c 1019.4 hPa 68% 0.0mm
28/11:30am SSE 8-11 kts 21.2°c 1019.9 hPa 69% 0.0mm
28/11:00am S 8-11 kts 21.3°c 1020.1 hPa 70% 0.0mm
28/10:30am S 9-14 kts 20.4°c 1020.3 hPa 70% 0.0mm
28/10:00am S 8-13 kts 20.0°c 1020.5 hPa 73% 0.0mm
28/09:30am SW 6-9 kts 18.5°c 1021.2 hPa 76% 0.0mm
28/09:00am SW 7-10 kts 17.8°c 1021.2 hPa 80% 0.0mm
28/08:30am WSW 6-9 kts 17.4°c 1020.6 hPa 82% 0.0mm
28/08:00am WSW 6-10 kts 16.8°c 1020.5 hPa 83% 0.0mm
28/07:30am WSW 8-10 kts 16.3°c 1020.1 hPa 85% 0.0mm
28/07:00am WSW 8-11 kts 15.9°c 1019.7 hPa 85% 0.0mm
28/06:30am WSW 7-9 kts 15.9°c 1019.7 hPa 84% 0.0mm
28/06:00am WSW 8-12 kts 15.9°c 1019.4 hPa 83% 0.0mm
28/05:30am WSW 7-9 kts 15.5°c 1019.3 hPa 85% 0.0mm
28/05:00am WSW 7-9 kts 15.7°c 1019.3 hPa 84% 0.0mm
28/04:30am WSW 7-9 kts 15.7°c 1018.9 hPa 84% 0.0mm
28/04:00am WSW 7-8 kts 15.5°c 1019.0 hPa 86% 0.0mm
28/03:30am WSW 7-8 kts 15.8°c 1018.8 hPa 86% 0.0mm
28/03:00am WSW 7-8 kts 16.1°c 1018.8 hPa 85% 0.0mm
28/02:30am WSW 6-9 kts 16.2°c 1018.6 hPa 85% 0.0mm
28/02:00am WSW 7-9 kts 16.2°c 1019.0 hPa 87% 0.0mm
28/01:30am WSW 8-10 kts 16.3°c 1019.2 hPa 87% 0.0mm
28/01:00am WSW 8-11 kts 16.4°c 1019.1 hPa 87% 0.0mm
28/12:30am WSW 8-11 kts 16.9°c 1019.2 hPa 86% 0.0mm
28/12:00am SW 8-11 kts 16.9°c 1019.4 hPa 86% 0.0mm